Location: S�deilles
(46.7500°N, 6.9329°E)
Time: 08:30:58
(UTC+00:00)

Cosmos 468 Rocket - Pass Details

Date: 08 March 2021
Orbit: 745 x 779 km, 74.0° (Epoch: 14 April)

Event Time Altitude Azimuth Distance (km) Brightness Sun altitude
Rises 19:06:00 0° 177° (S) 3,247 7.1 -17.5°
Reaches altitude 10° 19:08:30 10° 170° (S) 2,323 6.3 -17.9°
Maximum altitude 19:13:21 38° 103° (ESE) 1,164 4.4 -18.7°
Drops below altitude 10° 19:18:13 10° 36° (NE) 2,326 6.3 -19.5°
Sets 19:20:43 0° 29° (NNE) 3,253 7.1 -19.9°
